Kezdőlap
METAR-TAF:

METAR-TAF

Repülőterek :

Prairie du Chien Municipal Airport

Prairie du Chien, Wisconsin, Amerikai Egyesült Államok

földrajzi szélesség: 43-01-19N, földrajzi hosszúság: 091-07-29W, magasság: 201 m

Jelenlegi meteorológiai megfigyelések

A jelentés 19 perccel ezelõtt készült, 07:55 UTC
Szélcsend
Hőmérséklet 21°C
Páratartalom 88%
Légköri nyomás 1016 hPa
Látótávolság: 11.3 km
Derült ég

METAR: KPDC 070755Z AUTO 00000KT 7SM CLR 21/19 A3001 RMK AO2 T02100194

Idő: 03:14 (08:14 UTC)


TAF: hiányzik

Meteorológiai megfigyelések és előrejelzések több, mint 4000 repülőtéren (METAR és TAF jelentéseket).

A térképen piros és sárga pontok jelzik az elérhető meteorológiai állomásokat.

Mozgassa az egeret a pont fölött, hogy megjelenjen az állomás neve.

Azután kattintson az időjárási megfigyelések és előrejelzések megtekintéséhez.

A térkép megváltoztatása: kattintson a fekete keresztel jelölt zöld gombra ráközelítéshez, a vonallal jelölt zöld gombra távolításhoz, vagy a zöld nyilakra a szomszédos térképek eléréséhez.


METAR-TAF: